Location: Leuk
(46.3174°N, 7.6341°E)
Time: 15:29:46
(UTC+00:00)

Meteor 1-31 Rocket - Pass Details

Date: 09 March 2021
Orbit: 519 x 547 km, 97.7° (Epoch: 14 April)

Event Time Altitude Azimuth Distance (km) Brightness Sun altitude
Rises 04:04:55 0° 19° (NNE) 2,698 6.8 -19.5°
Reaches altitude 10° 04:07:08 10° 26° (NNE) 1,797 6.0 -19.1°
Maximum altitude 04:10:50 42° 99° (E) 763 4.0 -18.5°
Drops below altitude 10° 04:14:28 10° 171° (S) 1,766 5.4 -17.9°
Sets 04:16:38 0° 178° (S) 2,645 6.2 -17.5°
